• In Hungary
  • List of Countries
  • For 7 days
  • Water Temperature
  • Satellite Maps
  • Weather Map
  • News
  • Weather Widgets
  • user-avatar
    Login

    Hourly Weather Bolshoy Bor

    Today, 20 August, Monday

    Time Temperature Precipitation Wind Pressure Humidity
    00:00 +18°C° 0 mm 1 mps 748 mmHg 83%
    01:00 +18°C° 0 mm 1 mps 748 mmHg 83%
    02:00 +17°C° 0 mm 2 mps 748 mmHg 81%
    03:00 +17°C° 0 mm 2 mps 748 mmHg 80%
    04:00 +16°C° 0 mm 2 mps 747 mmHg 80%
    05:00 +16°C° 0 mm 2 mps 747 mmHg 80%
    06:00 +18°C° 0 mm 2 mps 747 mmHg 77%
    07:00 +19°C° 0 mm 3 mps 747 mmHg 75%
    08:00 +20°C° 0 mm 3 mps 747 mmHg 73%
    09:00 +22°C° 0 mm 3 mps 747 mmHg 70%
    10:00 +24°C° 0 mm 3 mps 746 mmHg 67%
    11:00 +26°C° 0 mm 4 mps 746 mmHg 64%
    12:00 +26°C° 0.4 mm 4 mps 746 mmHg 64%
    13:00 +26°C° 0.4 mm 4 mps 745 mmHg 64%
    14:00 +27°C° 0.4 mm 4 mps 745 mmHg 63%
    15:00 +27°C° 0.5 mm 4 mps 744 mmHg 66%
    16:00 +26°C° 0.5 mm 4 mps 744 mmHg 69%
    17:00 +26°C° 0.5 mm 3 mps 743 mmHg 72%
    18:00 +25°C° 0.2 mm 3 mps 743 mmHg 76%
    19:00 +22°C° 0.2 mm 3 mps 742 mmHg 81%
    20:00 +21°C° 0.2 mm 3 mps 742 mmHg 86%
    21:00 +20°C° 0.3 mm 3 mps 742 mmHg 87%
    22:00 +20°C° 0.3 mm 4 mps 742 mmHg 88%
    23:00 +19°C° 0.3 mm 4 mps 742 mmHg 89%

    Tomorrow, 21 August, Tuesday

    Time Temperature Precipitation Wind Pressure Humidity
    00:00 +19°C° 0.1 mm 4 mps 742 mmHg 91%
    01:00 +18°C° 0.1 mm 4 mps 742 mmHg 92%
    02:00 +18°C° 0.1 mm 4 mps 742 mmHg 94%
    03:00 +17°C° 0 mm 4 mps 742 mmHg 94%
    04:00 +17°C° 0 mm 4 mps 742 mmHg 95%
    05:00 +17°C° 0 mm 4 mps 742 mmHg 95%
    06:00 +16°C° 0 mm 5 mps 742 mmHg 92%
    07:00 +16°C° 0 mm 5 mps 743 mmHg 90%
    08:00 +16°C° 0 mm 5 mps 743 mmHg 87%
    09:00 +17°C° 0.1 mm 5 mps 743 mmHg 83%
    10:00 +19°C° 0.1 mm 5 mps 744 mmHg 78%
    11:00 +19°C° 0.1 mm 5 mps 744 mmHg 74%
    12:00 +20°C° 0.1 mm 5 mps 744 mmHg 69%
    13:00 +21°C° 0.1 mm 5 mps 744 mmHg 63%
    14:00 +22°C° 0.1 mm 5 mps 745 mmHg 58%
    15:00 +21°C° 0.1 mm 5 mps 745 mmHg 60%
    16:00 +21°C° 0.1 mm 5 mps 745 mmHg 62%
    17:00 +21°C° 0.1 mm 4 mps 745 mmHg 63%
    18:00 +19°C° 0 mm 4 mps 746 mmHg 67%
    19:00 +17°C° 0 mm 3 mps 746 mmHg 72%
    20:00 +16°C° 0 mm 3 mps 746 mmHg 76%
    21:00 +14°C° 0 mm 3 mps 747 mmHg 78%
    22:00 +13°C° 0 mm 3 mps 747 mmHg 80%
    23:00 +13°C° 0 mm 3 mps 748 mmHg 81%

    Day after tomorrow, 22 August, Wednesday

    Time Temperature Precipitation Wind Pressure Humidity
    00:00 +12°C° 0 mm 3 mps 748 mmHg 83%
    01:00 +11°C° 0 mm 3 mps 749 mmHg 85%
    02:00 +11°C° 0 mm 3 mps 749 mmHg 88%
    03:00 +10°C° 0 mm 3 mps 750 mmHg 89%
    04:00 +9°C° 0 mm 3 mps 750 mmHg 91%
    05:00 +9°C° 0 mm 2 mps 750 mmHg 93%
    06:00 +10°C° 0 mm 3 mps 751 mmHg 84%
    07:00 +12°C° 0 mm 3 mps 751 mmHg 76%
    08:00 +13°C° 0 mm 4 mps 751 mmHg 67%
    09:00 +14°C° 0 mm 4 mps 752 mmHg 63%
    10:00 +15°C° 0 mm 4 mps 752 mmHg 59%
    11:00 +17°C° 0 mm 4 mps 752 mmHg 54%
    12:00 +18°C° 0 mm 3 mps 752 mmHg 53%
    13:00 +18°C° 0 mm 3 mps 752 mmHg 51%
    14:00 +19°C° 0 mm 3 mps 752 mmHg 49%
    15:00 +19°C° 0 mm 3 mps 752 mmHg 50%
    16:00 +19°C° 0 mm 2 mps 752 mmHg 52%
    17:00 +19°C° 0 mm 2 mps 752 mmHg 53%
    18:00 +17°C° 0 mm 2 mps 752 mmHg 59%
    19:00 +15°C° 0 mm 1 mps 752 mmHg 66%
    20:00 +13°C° 0 mm 1 mps 752 mmHg 72%
    21:00 +13°C° 0 mm 1 mps 752 mmHg 73%
    22:00 +12°C° 0 mm 1 mps 752 mmHg 74%
    23:00 +12°C° 0 mm 1 mps 752 mmHg 76%

    23 August, Thursday

    Time Temperature Precipitation Wind Pressure Humidity
    00:00 +12°C° 0 mm 1 mps 752 mmHg 77%
    01:00 +11°C° 0 mm 1 mps 752 mmHg 77%
    02:00 +11°C° 0 mm 1 mps 752 mmHg 78%
    03:00 +11°C° 0 mm 1 mps 752 mmHg 79%
    04:00 +10°C° 0 mm 1 mps 752 mmHg 80%
    05:00 +9°C° 0 mm 2 mps 752 mmHg 81%
    06:00 +12°C° 0 mm 2 mps 752 mmHg 77%
    07:00 +13°C° 0 mm 2 mps 752 mmHg 73%
    08:00 +14°C° 0 mm 3 mps 752 mmHg 69%
    09:00 +16°C° 0 mm 3 mps 751 mmHg 64%
    10:00 +18°C° 0 mm 3 mps 751 mmHg 59%
    11:00 +19°C° 0 mm 3 mps 751 mmHg 55%
    12:00 +20°C° 0 mm 3 mps 751 mmHg 53%
    13:00 +21°C° 0 mm 3 mps 750 mmHg 51%
    14:00 +21°C° 0 mm 3 mps 750 mmHg 50%
    15:00 +21°C° 0 mm 3 mps 750 mmHg 52%
    16:00 +21°C° 0 mm 3 mps 749 mmHg 54%
    17:00 +21°C° 0 mm 3 mps 749 mmHg 57%
    18:00 +20°C° 0 mm 3 mps 749 mmHg 62%
    19:00 +18°C° 0 mm 3 mps 749 mmHg 68%
    20:00 +16°C° 0 mm 3 mps 748 mmHg 73%
    21:00 +16°C° 0 mm 3 mps 748 mmHg 72%
    22:00 +14°C° 0 mm 3 mps 748 mmHg 70%
    23:00 +14°C° 0 mm 3 mps 748 mmHg 69%

    24 August, Friday

    Time Temperature Precipitation Wind Pressure Humidity
    00:00 +14°C° 0 mm 4 mps 748 mmHg 69%
    01:00 +14°C° 0 mm 4 mps 748 mmHg 69%
    02:00 +14°C° 0 mm 4 mps 747 mmHg 69%
    03:00 +13°C° 0 mm 4 mps 747 mmHg 70%
    04:00 +13°C° 0 mm 4 mps 747 mmHg 71%
    05:00 +13°C° 0 mm 4 mps 747 mmHg 72%
    06:00 +14°C° 0 mm 4 mps 746 mmHg 71%
    07:00 +15°C° 0 mm 5 mps 746 mmHg 69%
    08:00 +16°C° 0 mm 5 mps 746 mmHg 67%
    09:00 +17°C° 0 mm 5 mps 746 mmHg 65%
    10:00 +20°C° 0 mm 5 mps 746 mmHg 63%
    11:00 +21°C° 0 mm 5 mps 746 mmHg 61%
    12:00 +22°C° 0 mm 6 mps 745 mmHg 58%
    13:00 +24°C° 0 mm 6 mps 745 mmHg 56%
    14:00 +26°C° 0 mm 6 mps 745 mmHg 53%
    15:00 +26°C° 0 mm 6 mps 744 mmHg 55%
    16:00 +26°C° 0 mm 5 mps 744 mmHg 57%
    17:00 +26°C° 0 mm 5 mps 743 mmHg 59%
    18:00 +25°C° 0 mm 5 mps 743 mmHg 61%
    19:00 +22°C° 0 mm 5 mps 743 mmHg 63%
    20:00 +21°C° 0 mm 5 mps 743 mmHg 65%
    21:00 +21°C° 0 mm 5 mps 743 mmHg 65%
    22:00 +20°C° 0 mm 5 mps 743 mmHg 65%
    23:00 +20°C° 0 mm 5 mps 743 mmHg 65%

    25 August, Saturday

    Time Temperature Precipitation Wind Pressure Humidity
    00:00 +19°C° 0.1 mm 5 mps 743 mmHg 68%
    01:00 +19°C° 0.1 mm 4 mps 743 mmHg 70%
    02:00 +18°C° 0.1 mm 4 mps 743 mmHg 73%
    03:00 +18°C° 0.1 mm 4 mps 743 mmHg 74%
    04:00 +17°C° 0.1 mm 4 mps 743 mmHg 75%
    05:00 +17°C° 0.1 mm 3 mps 743 mmHg 76%
    06:00 +17°C° 0.2 mm 3 mps 743 mmHg 75%
    07:00 +18°C° 0.2 mm 3 mps 743 mmHg 73%
    08:00 +18°C° 0.2 mm 3 mps 743 mmHg 72%
    09:00 +20°C° 0.2 mm 4 mps 743 mmHg 68%
    10:00 +21°C° 0.2 mm 4 mps 743 mmHg 65%
    11:00 +22°C° 0.2 mm 4 mps 743 mmHg 61%
    12:00 +23°C° 0 mm 4 mps 742 mmHg 58%
    13:00 +25°C° 0 mm 4 mps 742 mmHg 56%
    14:00 +26°C° 0 mm 5 mps 742 mmHg 53%
    15:00 +26°C° 0 mm 4 mps 741 mmHg 55%
    16:00 +25°C° 0 mm 4 mps 741 mmHg 57%
    17:00 +25°C° 0 mm 3 mps 740 mmHg 60%
    18:00 +23°C° 0.2 mm 4 mps 740 mmHg 60%
    19:00 +22°C° 0.2 mm 4 mps 740 mmHg 61%
    20:00 +21°C° 0.2 mm 4 mps 740 mmHg 62%
    21:00 +20°C° 0.5 mm 4 mps 741 mmHg 71%
    22:00 +19°C° 0.5 mm 3 mps 741 mmHg 79%
    23:00 +18°C° 0.5 mm 3 mps 741 mmHg 87%
    Show more